Regional Weather Roundup
Issued by NWS Cleveland, OH

Home | Current Version | Previous Version | Text Only | Print | Product List | Glossary Off
Versions: 1 2 3 4 5 6 7 8 9 10 11 12 13 14 15 16 17 18 19 20 21 22 23 24 25 26 27 28 29 30 31 32 33 34 35 36 37 38 39 40 41 42 43 44 45 46 47 48 49 50

000
ASUS41 KCLE 010910
RWRCLE
OHIO REGIONAL WEATHER ROUNDUP
NATIONAL WEATHER SERVICE CLEVELAND, OH
400 AM EST SUN FEB 01 2015

NOTE: "FAIR" INDICATES FEW OR NO CLOUDS BELOW 12,000 FEET WITH NO
SIGNIFICANT WEATHER AND/OR OBSTRUCTIONS TO VISIBILITY.

OHZ001>008-015>018-024>027-034-035-043-044-011000-
   NORTHWEST OHIO

CITY           SKY/WX    TMP DP  RH WIND       PRES   REMARKS
DEFIANCE       LGT SNOW  33  31  92 CALM      30.14F VSB 1
FINDLAY        LGT SNOW  32  30  92 S3        30.13F FOG
TOLEDO EXPRESS LGT SNOW  30  28  93 NE6       30.14F FOG     WCI  24
TOLEDO EXEC    LGT SNOW  31  29  92 CALM      30.16F VSB 3/4
LIMA           SNOW      33  31  92 S5        30.12F VSB 1/2 WCI  29
$$

OHZ009>014-019>023-028>033-038-089-011000-
   NORTHEAST OHIO

CITY           SKY/WX    TMP DP  RH WIND       PRES   REMARKS
CLE-HOPKINS    LGT SNOW  29  27  92 SW5       30.19F VSB 1   WCI  24
CLE-LAKEFRONT  LGT SNOW  30  27  88 SW8       30.17F FOG     WCI  22
CUY CO. ARPT   NOT AVBL
LORAIN-ELYRIA  LGT SNOW  30  28  92 SW3       30.16F VSB 1
ASHTABULA      CLOUDY    27  20  75 CALM      30.16F
AKRON-CANTON   LGT SNOW  28  24  85 SW5       30.16S VSB 1   WCI  23
WOOSTER        LGT SNOW  27  25  92 CALM      30.16F FOG
MANSFIELD      LGT SNOW  30  29  96 SW5       30.13F FOG     WCI  25
YOUNGSTOWN     LGT SNOW  28  20  71 SW7       30.15S FOG     WCI  21
$$

OHZ042-051>053-060>062-070>072-077>081-011000-
  SOUTHWEST OHIO

CITY           SKY/WX    TMP DP  RH WIND       PRES   REMARKS
CINC-COVINGTON CLOUDY    34  27  75 E7        30.12F WCI  28
CINC-LUNKEN    CLOUDY    31  31 100 CALM      30.19F FOG
HAMILTON       CLOUDY    33  32  96 NE6       30.16F FOG     WCI  28
DAYTON         CLOUDY    33  31  92 SE3       30.13F FOG
WRIGHT-PAT AFB MOCLDY    32  32  99 E2        30.14F
DAYTON GENERAL CLOUDY    32  30  92 SE6       30.13F WCI  26
WILMINGTON     CLOUDY    32  28  85 S3        30.15F
$$

OHZ036-037-039>041-045>050-054>059-063>069-073>076-082>088-011000-
  CENTRAL AND SOUTHEAST OHIO

CITY           SKY/WX    TMP DP  RH WIND       PRES   REMARKS
COLUMBUS       FRZ RAIN  31  29  92 CALM      30.16F FOG
OSU AIRPORT    LGT SNOW  32  31  96 CALM      30.15F FOG
BOLTON FIELD   MIX PCPN  32  32 100 CALM      30.16F
RICKENBACK AFB MIX PCPN  32  31  96 CALM      30.17F
NEWARK         LGT SNOW  32  29  88 CALM      30.16F FOG
MARION         LGT SNOW  30  28  92 S5        30.15F VSB 1   WCI  25
LANCASTER      CLOUDY    33  30  88 S3        30.17F
ZANESVILLE     LGT SNOW  29  27  92 S3        30.18F VSB 1
NEW PHILLY     LGT SNOW  28  25  88 SE3       30.19F FOG
$$



USA.gov is the U.S. government's official web portal to all federal, state and local government web resources and services.